Precipitable_Water
1.49 1.54 1.56 1.58 1.60 1.63 1.64 1.63 1.65 1.65 1.65 1.63 1.55 1.56 1.59 1.62 1.67 1.66 1.68 1.70 1.71 1.69 1.70 1.70 1.73 1.73 1.74 1.73 1.75 1.73 1.69 1.65 1.60 1.57 1.56 1.56 1.54 1.54 1.54 1.57 1.57 1.58
1.43 1.50 1.58 1.63 1.63 1.64 1.65 1.66 1.63 1.61 1.63 1.65 1.65 1.64 1.68 1.67 1.68 1.70 1.70 1.71 1.72 1.71 1.73 1.72 1.74 1.76 1.77 1.76 1.75 1.71 1.68 1.64 1.57 1.62 1.54 1.51 1.52 1.52 1.51 1.55 1.57 1.61
1.41 1.43 1.49 1.56 1.61 1.62 1.62 1.66 1.65 1.63 1.61 1.63 1.67 1.69 1.68 1.71 1.68 1.70 1.73 1.74 1.73 1.73 1.75 1.76 1.75 1.76 1.76 1.76 1.77 1.74 1.70 1.66 1.60 1.62 1.57 1.50 1.50 1.46 1.47 1.51 1.52 1.54
1.40 1.41 1.42 1.49 1.62 1.65 1.65 1.61 1.61 1.62 1.62 1.60 1.58 1.64 1.69 1.71 1.70 1.68 1.69 1.74 1.73 1.73 1.76 1.78 1.77 1.76 1.76 1.76 1.75 1.72 1.72 1.70 1.70 1.67 1.58 1.54 1.52 1.49 1.47 1.48 1.50 1.51
1.37 1.41 1.43 1.45 1.55 1.65 1.65 1.59 1.56 1.57 1.57 1.58 1.58 1.59 1.61 1.65 1.67 1.66 1.66 1.68 1.69 1.69 1.71 1.71 1.74 1.73 1.75 1.72 1.71 1.66 1.68 1.68 1.70 1.67 1.59 1.52 1.53 1.50 1.50 1.48 1.45 1.45
1.37 1.43 1.46 1.45 1.48 1.55 1.57 1.55 1.56 1.56 1.56 1.55 1.54 1.55 1.53 1.57 1.62 1.64 1.65 1.64 1.66 1.66 1.67 1.67 1.67 1.70 1.72 1.69 1.66 1.64 1.64 1.63 1.67 1.66 1.60 1.55 1.55 1.56 1.53 1.50 1.46 1.42
1.25 1.33 1.41 1.46 1.45 1.49 1.52 1.53 1.55 1.57 1.57 1.57 1.57 1.48 1.48 1.47 1.53 1.60 1.64 1.65 1.64 1.65 1.65 1.64 1.61 1.62 1.68 1.67 1.63 1.62 1.63 1.62 1.63 1.63 1.60 1.58 1.56 1.55 1.57 1.53 1.50 1.45
1.27 1.28 1.33 1.41 1.43 1.45 1.47 1.51 1.52 1.52 1.56 1.56 1.49 1.48 1.45 1.43 1.46 1.55 1.62 1.65 1.64 1.64 1.66 1.66 1.63 1.60 1.61 1.59 1.56 1.56 1.57 1.61 1.60 1.59 1.57 1.57 1.57 1.50 1.54 1.56 1.56 1.53
1.33 1.28 1.27 1.28 1.31 1.38 1.43 1.48 1.51 1.50 1.53 1.49 1.47 1.46 1.46 1.43 1.44 1.49 1.54 1.61 1.63 1.64 1.64 1.65 1.66 1.64 1.63 1.58 1.54 1.53 1.52 1.54 1.58 1.58 1.55 1.53 1.54 1.54 1.52 1.53 1.50 1.50
1.38 1.34 1.29 1.24 1.20 1.25 1.33 1.44 1.50 1.50 1.51 1.48 1.48 1.49 1.44 1.45 1.45 1.45 1.49 1.54 1.58 1.60 1.61 1.61 1.63 1.64 1.64 1.63 1.59 1.55 1.51 1.47 1.49 1.53 1.54 1.54 1.55 1.60 1.60 1.55 1.49 1.46
1.51 1.42 1.33 1.27 1.21 1.19 1.21 1.32 1.43 1.48 1.49 1.46 1.46 1.44 1.46 1.45 1.45 1.47 1.45 1.47 1.51 1.56 1.59 1.60 1.60 1.61 1.61 1.61 1.61 1.60 1.56 1.51 1.49 1.47 1.47 1.48 1.50 1.53 1.59 1.59 1.57 1.54
1.63 1.53 1.42 1.33 1.27 1.23 1.20 1.23 1.30 1.37 1.43 1.44 1.44 1.41 1.43 1.45 1.43 1.45 1.44 1.43 1.46 1.53 1.58 1.61 1.62 1.61 1.59 1.58 1.58 1.58 1.55 1.52 1.49 1.47 1.45 1.44 1.45 1.46 1.47 1.50 1.48 1.47
1.78 1.63 1.53 1.45 1.37 1.32 1.30 1.26 1.25 1.28 1.32 1.34 1.38 1.38 1.37 1.37 1.40 1.41 1.44 1.45 1.45 1.47 1.49 1.53 1.55 1.56 1.55 1.54 1.54 1.54 1.52 1.48 1.45 1.43 1.41 1.39 1.40 1.41 1.43 1.44 1.43 1.42
1.93 1.79 1.67 1.58 1.52 1.45 1.39 1.35 1.29 1.25 1.25 1.31 1.34 1.32 1.30 1.31 1.32 1.33 1.38 1.43 1.44 1.44 1.45 1.47 1.48 1.49 1.50 1.50 1.50 1.49 1.48 1.46 1.45 1.41 1.38 1.37 1.35 1.36 1.39 1.40 1.41 1.40
2.10 2.01 1.87 1.76 1.66 1.55 1.47 1.44 1.40 1.33 1.28 1.27 1.29 1.29 1.30 1.30 1.31 1.31 1.32 1.34 1.39 1.42 1.42 1.44 1.43 1.43 1.46 1.46 1.44 1.44 1.44 1.42 1.42 1.40 1.37 1.34 1.32 1.31 1.32 1.33 1.34 1.34
2.15 2.11 1.97 1.88 1.77 1.64 1.57 1.54 1.52 1.49 1.40 1.32 1.29 1.32 1.36 1.38 1.35 1.34 1.32 1.31 1.33 1.37 1.40 1.41 1.41 1.43 1.44 1.45 1.47 1.45 1.43 1.42 1.40 1.38 1.35 1.32 1.28 1.25 1.25 1.26 1.26 1.27
2.18 2.12 2.06 2.00 1.95 1.85 1.73 1.64 1.58 1.57 1.55 1.51 1.45 1.39 1.33 1.32 1.34 1.34 1.32 1.31 1.31 1.33 1.34 1.36 1.39 1.41 1.42 1.43 1.44 1.47 1.47 1.44 1.39 1.35 1.34 1.31 1.27 1.23 1.18 1.19 1.22 1.24
2.19 2.16 2.11 2.08 2.05 2.01 1.93 1.86 1.81 1.72 1.62 1.55 1.50 1.46 1.42 1.37 1.28 1.23 1.25 1.28 1.29 1.30 1.29 1.30 1.32 1.37 1.40 1.43 1.45 1.46 1.48 1.46 1.43 1.38 1.35 1.32 1.30 1.28 1.25 1.23 1.22 1.23
2.15 2.16 2.17 2.16 2.13 2.10 2.07 2.02 1.96 1.88 1.78 1.66 1.55 1.51 1.47 1.39 1.33 1.29 1.23 1.25 1.25 1.22 1.21 1.25 1.27 1.31 1.33 1.37 1.41 1.44 1.46 1.47 1.46 1.42 1.37 1.32 1.31 1.29 1.28 1.27 1.27 1.25
2.18 2.17 2.15 2.17 2.18 2.17 2.14 2.09 2.03 1.96 1.90 1.82 1.75 1.64 1.50 1.44 1.42 1.38 1.36 1.31 1.31 1.29 1.27 1.26 1.25 1.28 1.30 1.32 1.34 1.37 1.40 1.43 1.43 1.41 1.38 1.34 1.31 1.30 1.29 1.28 1.28 1.26
2.11 2.07 2.05 2.08 2.09 2.13 2.15 2.10 2.05 2.00 1.96 1.94 1.88 1.79 1.68 1.61 1.60 1.59 1.61 1.55 1.46 1.46 1.44 1.40 1.40 1.42 1.40 1.39 1.40 1.40 1.40 1.40 1.40 1.39 1.37 1.33 1.31 1.29 1.27 1.26 1.27 1.28
2.01 2.02 1.98 1.97 2.00 2.04 2.06 2.06 2.03 2.00 1.99 2.03 2.02 1.97 1.91 1.88 1.89 1.88 1.84 1.78 1.66 1.58 1.57 1.56 1.60 1.62 1.59 1.57 1.56 1.53 1.50 1.45 1.42 1.39 1.36 1.33 1.31 1.30 1.29 1.29 1.29 1.29
1.86 1.88 1.93 1.95 1.97 1.98 2.02 2.02 1.98 1.96 1.99 2.05 2.04 2.07 2.02 1.98 1.98 1.98 1.99 1.94 1.85 1.77 1.71 1.71 1.74 1.77 1.75 1.71 1.66 1.61 1.54 1.51 1.49 1.46 1.42 1.38 1.36 1.36 1.36 1.36 1.36 1.35
1.67 1.68 1.68 1.73 1.81 1.89 1.94 1.98 2.00 1.99 1.95 1.99 2.01 2.06 2.07 2.09 2.10 2.07 2.08 2.08 2.03 1.97 1.94 1.86 1.85 1.88 1.87 1.84 1.80 1.73 1.65 1.56 1.53 1.49 1.46 1.46 1.46 1.48 1.49 1.49 1.49 1.50
1.55 1.56 1.59 1.62 1.65 1.69 1.84 1.88 1.92 1.99 1.99 1.98 1.98 2.00 2.03 2.10 2.13 2.10 2.11 2.14 2.16 2.14 2.13 2.05 1.98 1.97 1.96 1.94 1.93 1.89 1.80 1.70 1.60 1.53 1.47 1.49 1.53 1.55 1.60 1.60 1.59 1.60
1.50 1.49 1.52 1.57 1.60 1.60 1.70 1.78 1.84 1.86 1.90 1.92 1.95 2.00 2.01 2.03 2.08 2.06 2.02 2.05 2.13 2.16 2.17 2.16 2.10 2.07 2.05 2.02 2.01 1.99 1.94 1.86 1.78 1.64 1.56 1.56 1.58 1.57 1.56 1.61 1.64 1.65
Wind_Speed
16 15 14 13 13 12 11 11 10 10 9 9 9 8 8 8 8 8 8 8 8 8 7 7 7 7 6 6 6 5 5 5 5 5 5 5 6 6 6 6 6 5
16 16 15 14 14 13 12 12 11 10 10 9 9 9 8 8 8 8 8 8 8 8 8 7 7 7 6 6 6 5 5 5 5 5 5 6 6 6 6 6 6 6
17 16 16 15 15 14 13 13 12 11 11 10 10 9 9 9 9 9 9 9 8 8 8 7 7 7 7 6 6 5 5 5 5 5 5 5 6 6 6 6 6 6
18 17 17 16 16 15 14 14 13 13 12 11 11 10 10 9 9 9 9 9 9 8 8 8 8 8 7 7 6 6 6 6 5 5 5 5 5 6 6 6 6 6
19 18 17 17 16 16 15 15 14 14 13 12 12 11 11 10 10 10 10 10 9 9 8 8 8 8 8 7 7 6 6 6 6 6 6 6 6 6 6 6 6 6
20 19 19 18 18 17 17 16 15 15 14 14 13 12 12 11 11 11 11 10 10 10 9 9 9 9 8 8 7 7 6 6 6 6 6 6 6 6 6 6 6 6
20 20 20 19 19 18 18 17 17 16 15 15 14 13 13 12 12 12 12 11 11 11 11 10 10 9 9 8 8 8 7 7 6 6 6 6 6 6 6 6 6 7
20 21 21 21 20 19 19 18 18 17 16 15 15 15 14 13 13 13 13 13 12 12 12 11 11 10 10 9 9 9 8 8 7 7 7 7 6 7 7 7 7 7
20 21 21 22 22 21 20 20 19 18 17 17 16 16 15 15 14 14 14 14 14 13 13 13 12 11 11 10 10 10 9 9 9 8 8 7 7 7 7 7 7 7
21 21 21 22 22 22 22 21 20 19 19 18 17 17 16 16 15 15 15 15 15 14 14 13 13 13 12 12 11 11 11 10 10 9 9 9 8 8 7 7 7 8
22 22 22 22 23 23 23 22 22 21 20 19 19 18 18 17 16 16 16 16 16 15 15 14 14 14 13 13 13 12 12 11 11 11 11 10 10 9 9 8 8 8
23 23 22 23 23 23 23 23 23 22 21 21 20 20 19 19 18 17 17 17 17 17 16 16 15 15 15 14 14 13 13 13 12 12 12 12 11 11 11 10 10 10
24 23 23 23 23 23 23 24 24 23 23 22 21 21 20 20 20 19 19 18 18 18 18 17 17 16 16 15 15 14 14 14 14 13 13 13 13 12 12 12 12 11
25 24 24 23 23 23 23 24 24 24 24 23 23 22 22 22 21 21 20 20 19 19 19 18 18 18 17 17 16 16 15 15 15 14 14 14 14 14 13 13 13 13
25 25 25 24 23 24 24 24 24 24 24 24 23 23 23 23 22 22 22 21 21 20 20 19 19 19 19 18 18 17 17 16 16 16 15 15 15 15 15 14 14 14
26 26 26 25 24 24 24 24 24 24 24 24 24 23 23 23 23 23 22 22 22 21 21 20 20 20 20 20 20 19 18 18 18 17 17 17 16 16 16 16 15 15
27 27 27 27 26 25 24 24 24 24 25 25 24 24 23 23 23 22 23 23 23 22 22 22 21 21 21 21 21 21 20 20 19 19 19 18 18 17 17 17 16 16
28 29 29 29 28 27 26 25 25 25 25 25 25 25 24 23 23 23 22 22 23 23 23 22 22 22 23 22 22 22 22 21 21 21 20 20 20 19 19 18 18 17
25 27 29 29 29 28 27 27 26 26 26 26 26 26 25 25 24 24 23 23 22 23 23 23 23 23 23 23 23 23 23 22 22 22 22 22 22 21 21 20 20 19
18 21 24 26 27 27 27 27 27 27 27 27 26 27 26 26 26 25 24 24 23 23 23 23 23 23 24 24 24 24 23 23 23 23 23 23 23 23 22 22 22 21
11 14 17 21 23 24 26 26 26 26 26 26 26 26 27 27 27 26 25 24 24 24 24 24 24 24 24 24 24 24 24 23 23 23 23 23 24 23 23 23 23 23
6 8 11 14 17 20 22 23 24 24 24 25 24 25 25 26 26 26 25 25 25 25 25 25 24 24 25 25 25 25 24 23 23 24 24 24 24 24 24 24 23 23
5 5 7 9 12 14 17 19 21 22 22 23 23 24 24 25 25 25 25 25 26 26 26 25 25 25 25 25 25 25 25 24 24 24 24 24 24 24 24 24 24 24
6 5 6 6 8 9 12 14 16 18 20 21 22 22 22 23 24 24 25 25 25 26 26 26 26 26 26 26 26 26 25 25 25 25 24 24 24 24 24 24 25 25
8 7 7 7 7 8 9 10 11 13 15 18 20 21 21 21 22 22 23 24 24 25 25 26 26 26 26 26 26 26 26 26 26 25 25 25 25 24 24 24 24 25
11 10 9 9 8 8 9 9 10 10 11 12 15 18 19 20 20 21 21 22 23 24 24 25 25 25 25 25 25 25 25 25 26 26 26 26 26 26 26 25 25 25
Wind_Direction
210 211 211 211 211 211 211 211 210 208 208 207 205 204 203 201 200 199 199 198 198 199 200 202 202 202 204 204 204 206 209 210 209 209 208 208 210 209 209 209 210 211
214 214 214 214 214 214 214 214 215 213 212 213 211 210 208 205 204 203 203 201 201 201 202 204 205 206 207 206 207 211 215 216 213 213 215 215 214 213 213 214 216 218
216 217 216 216 216 216 216 217 218 217 216 216 216 215 214 210 208 208 208 206 206 205 205 207 208 208 208 208 209 213 217 218 217 217 219 219 219 218 219 220 221 222
218 219 218 218 218 218 218 219 220 219 219 219 218 218 217 215 213 212 212 212 211 210 209 210 211 211 210 211 212 214 216 216 216 218 220 220 220 222 223 225 226 226
220 220 220 220 220 220 220 220 221 221 221 222 221 220 220 220 218 217 217 217 216 215 214 213 214 213 213 214 216 217 217 216 216 219 221 221 222 224 226 228 229 229
222 222 221 221 221 221 222 222 222 222 222 223 223 222 221 221 221 222 221 220 220 220 219 217 216 215 216 217 220 222 222 220 219 221 223 224 224 226 228 230 231 233
223 223 223 223 222 223 224 224 223 223 223 223 223 223 222 222 222 223 223 223 222 223 223 221 220 219 219 221 223 225 226 224 224 225 226 226 227 228 230 231 234 236
224 224 224 224 224 224 224 225 225 224 224 224 223 224 223 223 223 224 224 225 224 225 225 225 225 225 224 225 227 228 228 227 227 228 229 230 230 231 232 233 236 239
225 225 225 225 225 225 225 225 226 226 226 225 225 224 224 225 225 225 225 225 226 227 227 228 229 229 229 229 230 231 231 232 231 231 233 234 235 235 234 235 239 242
227 226 226 226 226 226 226 226 226 227 228 227 227 226 226 226 227 227 227 227 228 229 229 230 231 231 231 231 232 233 234 235 234 234 236 238 239 240 239 238 241 245
229 227 227 227 227 227 227 227 227 227 229 229 229 228 228 228 228 229 229 229 229 230 231 232 233 233 234 234 234 235 236 237 237 238 239 240 242 243 243 243 244 247
231 230 228 228 228 229 229 228 228 228 229 229 230 230 230 230 230 230 230 231 231 232 233 233 234 234 235 236 237 238 239 240 240 241 242 243 244 245 246 247 248 250
231 231 230 230 230 230 230 230 230 230 230 230 231 231 231 232 232 232 233 233 233 234 235 235 236 236 237 238 239 240 241 242 242 243 244 245 246 247 248 249 251 253
231 231 231 231 230 230 230 230 231 231 232 232 233 233 233 234 234 235 235 235 235 235 236 237 238 239 239 239 240 241 242 243 244 245 246 246 247 248 249 250 252 253
232 231 231 231 231 230 230 231 231 231 231 232 234 234 235 235 235 236 236 236 236 236 237 238 239 241 241 242 242 242 243 244 245 246 247 248 249 250 250 251 253 254
232 232 231 232 232 231 231 231 231 231 231 231 233 234 235 236 236 236 237 237 237 238 238 239 240 241 242 243 244 244 245 245 246 248 249 250 251 252 252 253 254 255
234 233 232 232 232 232 232 232 232 232 232 232 232 233 234 235 236 237 237 238 238 239 240 240 241 242 242 243 245 246 247 247 248 249 250 251 252 253 254 255 256 257
236 235 233 232 233 233 234 234 234 233 233 233 233 233 234 235 236 237 238 239 239 240 241 242 243 243 244 244 245 246 247 249 249 250 251 252 253 254 255 257 258 259
237 235 233 232 232 233 234 235 235 235 235 235 234 234 235 235 236 237 237 238 240 240 241 242 243 245 245 246 247 248 248 249 251 251 252 253 254 255 256 258 259 261
236 233 231 231 232 233 233 234 236 236 236 236 236 236 236 236 237 238 238 239 240 241 242 242 244 245 246 247 248 249 249 250 252 253 253 253 254 255 257 258 260 261
232 230 229 230 232 233 233 234 236 236 236 236 237 236 236 236 237 238 238 239 241 242 242 243 244 245 246 247 248 249 250 251 253 253 254 254 255 256 257 259 260 261
230 225 225 227 229 232 233 234 235 235 236 236 236 236 235 235 237 238 239 240 241 241 242 244 245 246 246 247 248 249 250 252 253 254 255 255 256 257 258 259 260 261
233 226 224 225 226 229 232 233 234 234 235 234 234 235 235 236 237 238 239 240 241 241 242 243 245 246 247 248 249 250 251 252 254 254 255 256 257 258 258 259 261 261
230 231 234 233 232 232 233 235 235 234 233 232 232 234 236 237 237 238 240 242 242 242 243 244 245 246 247 248 250 250 251 252 253 254 255 256 257 258 259 260 261 262
232 234 238 239 238 236 237 239 238 234 232 233 233 234 235 236 236 238 241 243 243 244 244 245 246 246 246 248 249 250 251 251 252 252 254 255 257 258 259 260 260 261
237 237 238 239 239 241 241 242 242 237 234 235 236 235 236 236 237 240 242 243 244 244 244 245 246 246 247 249 250 251 251 251 251 252 253 256 257 259 260 261 262 262